Content
SEND FEEDBACK

Daily
Averages
Monthly
Summary
United States of America

ELIZABETH, MINNESOTA


Home > North America > United States > Minnesota
Elevation: 1223 feet     Latitude: 46 16N     Longitude: 096 04W

WEATHER
 
SELECT A DAY
Number of Records: 458,686;   Date Range: 1/1/95 - 8/12/14
 
SHARE

PRINT THIS DATA

[ ← Previous Day ]
WEATHER ALMANAC - APRIL 28, 2014
[ Next Day → ]
[ °C ]   °F
Weather ElementAverageHighLow
Temperature38.8 °F41 °F (2:53 am)37.4 °F (6:53 am)
Dewpoint34.7 °F35.6 °F (4:13 am)30.2 °F (11:53 pm)
Humidity85.3 %93 % (6:53 am)70 % (11:53 pm)
Barometer29.62 in29.79 in (11:13 pm)29.54 in (4:33 am)
Wind Speed16.6 mph26.5 mph (3:33 am)
Wind Gust36.8 mph (5:53 pm)
Weather ElementAverage
Visibility7.9 mi
Wind DirectionESE (101.1 °)

Weather ElementTotal
Precipitation1.14 in
Heating Degree Days25.8 (Base 65)
Averaged from 62 records on April 28, 2014
WEATHER CONDITIONS BREAKOUT
WIND DIRECTION BREAKOUT
WEATHER BY HOUR - APRIL 28, 2014
[ °C ]   °F
Local TimeTemperatureDewpointHumidityBarometerVisibilityWind DirectionWind SpeedGust SpeedPrecipitationEventsConditions
12:33 AM39.2 °F33.8 °F81 %29.57 in10.0 miESE (110°)18.4 mph27.6 mphOvercast
1:13 AM39.2 °F33.8 °F81 %29.58 in10.0 miESE (110°)20.7 mph28.8 mphOvercast
1:33 AM39.2 °F33.8 °F81 %29.58 in10.0 miESE (110°)19.6 mph31.1 mphOvercast
2:13 AM39.2 °F33.8 °F81 %29.58 in10.0 miESE (110°)19.6 mph34.5 mphOvercast
2:33 AM39.2 °F33.8 °F81 %29.59 in10.0 miESE (110°)19.6 mph31.1 mphOvercast
2:53 AM41.0 °F33.8 °F76 %29.59 in10.0 miEast (100°)17.3 mph29.9 mphOvercast
3:13 AM41.0 °F33.8 °F76 %29.59 in10.0 miESE (110°)24.2 mph29.9 mphOvercast
3:33 AM41.0 °F33.8 °F76 %29.58 in10.0 miESE (110°)26.5 mph34.5 mphOvercast
3:53 AM41.0 °F33.8 °F76 %29.56 in10.0 miEast (100°)17.3 mph25.3 mphOvercast
4:13 AM39.2 °F35.6 °F87 %29.55 in5.0 miEast (100°)16.1 mph27.6 mph0.01 inRainRain
4:33 AM39.2 °F35.6 °F87 %29.54 in10.0 miEast (100°)16.1 mph24.2 mph0.02 inOvercast
5:13 AM39.2 °F35.6 °F87 %29.56 in10.0 miESE (110°)19.6 mph26.5 mphOvercast
5:33 AM39.2 °F35.6 °F87 %29.56 in7.0 miEast (100°)20.7 mph31.1 mphRainLight Rain
5:53 AM39.2 °F35.6 °F87 %29.56 in10.0 miEast (100°)18.4 mph31.1 mph0.01 inRainLight Rain
6:13 AM39.2 °F35.6 °F87 %29.56 in7.0 miESE (110°)17.3 mph29.9 mph0.01 inRainLight Rain
6:33 AM39.2 °F35.6 °F87 %29.56 in7.0 miEast (100°)17.3 mph29.9 mph0.02 inRainLight Rain
6:53 AM37.4 °F35.6 °F93 %29.56 in7.0 miEast (100°)15.0 mph33.4 mph0.04 inRainLight Rain
7:13 AM37.4 °F35.6 °F93 %29.57 in5.0 miEast (100°)18.4 mph28.8 mph0.04 inRainLight Rain
7:33 AM37.4 °F35.6 °F93 %29.58 in4.0 miESE (110°)13.8 mph25.3 mph0.08 inRainRain
7:53 AM37.4 °F35.6 °F93 %29.59 in2.5 miESE (110°)18.4 mph26.5 mph0.14 inRainLight Rain
8:14 AM37.4 °F35.6 °F93 %29.58 in7.0 miEast (100°)15.0 mph21.9 mph0.02 inRainLight Rain
8:33 AM37.4 °F35.6 °F93 %29.58 in5.0 miEast (100°)16.1 mph25.3 mph0.02 inLight Drizzle
9:13 AM37.4 °F35.6 °F93 %29.57 in2.0 miEast (100°)12.7 mph26.5 mphRainRain
9:33 AM37.4 °F35.6 °F93 %29.57 in4.0 miEast (90°)15.0 mph21.9 mph0.03 inRainRain
9:53 AM37.4 °F35.6 °F93 %29.57 in7.0 miEast (100°)15.0 mph25.3 mph0.07 inRainLight Rain
10:13 AM37.4 °F35.6 °F93 %29.57 in10.0 miEast (100°)17.3 mph25.3 mph0.01 inOvercast
10:33 AM37.4 °F35.6 °F93 %29.57 in5.0 miEast (100°)17.3 mph24.2 mph0.01 inRainLight Rain
10:53 AM37.4 °F35.6 °F93 %29.57 in4.0 miESE (110°)17.3 mph27.6 mph0.04 inRainRain
11:13 AM37.4 °F35.6 °F93 %29.58 in4.0 miEast (100°)17.3 mph26.5 mph0.05 inRainLight Rain
11:33 AM37.4 °F35.6 °F93 %29.59 in5.0 miEast (100°)15.0 mph24.2 mph0.11 inRainLight Rain
11:53 AM37.4 °F35.6 °F93 %29.59 in7.0 miEast (100°)11.5 mph21.9 mph0.16 inRainLight Rain
12:13 PM39.2 °F35.6 °F87 %29.59 in10.0 miEast (100°)13.8 mph21.9 mph0.01 inRainRain
12:33 PM39.2 °F35.6 °F87 %29.59 in7.0 miESE (110°)16.1 mph26.5 mph0.03 inRainLight Rain
12:53 PM39.2 °F35.6 °F87 %29.59 in7.0 miESE (110°)16.1 mph23.0 mph0.04 inRainLight Rain
1:13 PM39.2 °F35.6 °F87 %29.59 in7.0 miESE (110°)18.4 mph26.5 mph0.01 inRainRain
1:33 PM39.2 °F35.6 °F87 %29.59 in10.0 miESE (110°)17.3 mph24.2 mph0.02 inRainLight Rain
1:53 PM39.2 °F35.6 °F87 %29.60 in7.0 miEast (100°)13.8 mph27.6 mph0.04 inRainLight Rain
2:13 PM39.2 °F35.6 °F87 %29.60 in7.0 miEast (100°)15.0 mph29.9 mph0.01 inRainLight Rain
2:53 PM39.2 °F35.6 °F87 %29.61 in7.0 miEast (100°)16.1 mph29.9 mph0.02 inRainLight Rain
3:33 PM39.2 °F35.6 °F87 %29.61 in5.0 miESE (110°)16.1 mph28.8 mph0.01 inLight Drizzle
3:53 PM39.2 °F35.6 °F87 %29.61 in7.0 miEast (100°)18.4 mph26.5 mph0.01 inRainLight Rain
4:13 PM39.2 °F35.6 °F87 %29.60 in5.0 miEast (90°)17.3 mph26.5 mph0.01 inRainLight Rain
4:33 PM39.2 °F35.6 °F87 %29.61 in7.0 miEast (100°)12.7 mph25.3 mph0.02 inRainLight Rain
5:13 PM39.2 °F35.6 °F87 %29.60 in7.0 miEast (90°)18.4 mph31.1 mphRainLight Rain
5:33 PM39.2 °F35.6 °F87 %29.61 in5.0 miEast (90°)19.6 mph33.4 mph0.01 inRainLight Rain
5:53 PM37.4 °F35.6 °F93 %29.61 in10.0 miEast (90°)19.6 mph36.8 mph0.01 inRainLight Rain
6:13 PM37.4 °F35.6 °F93 %29.64 in7.0 miEast (100°)17.3 mph27.6 mphRainLight Rain
6:33 PM39.2 °F35.6 °F87 %29.66 in10.0 miESE (110°)11.5 mph24.2 mphRainLight Rain
6:53 PM39.2 °F35.6 °F87 %29.67 in10.0 miESE (110°)18.4 mph28.8 mphOvercast
7:13 PM39.2 °F35.6 °F87 %29.67 in10.0 miEast (100°)18.4 mph27.6 mphOvercast
7:33 PM39.2 °F33.8 °F81 %29.67 in10.0 miEast (100°)15.0 mph24.2 mphOvercast
7:53 PM39.2 °F33.8 °F81 %29.68 in10.0 miEast (90°)18.4 mph32.2 mphOvercast
8:13 PM39.2 °F33.8 °F81 %29.69 in10.0 miEast (100°)18.4 mph29.9 mphOvercast
8:33 PM39.2 °F32.0 °F75 %29.70 in10.0 miEast (100°)20.7 mph29.9 mphOvercast
8:53 PM39.2 °F32.0 °F75 %29.71 in10.0 miEast (100°)15.0 mph26.5 mphOvercast
9:12 PM39.2 °F32.0 °F75 %29.73 in10.0 miESE (110°)16.1 mph25.3 mphOvercast
10:12 PM39.2 °F32.0 °F75 %29.76 in10.0 miEast (90°)9.2 mph21.9 mphOvercast
10:33 PM39.2 °F32.0 °F75 %29.77 in10.0 miEast (90°)11.5 mph19.6 mphOvercast
10:53 PM39.2 °F32.0 °F75 %29.78 in10.0 miEast (100°)13.8 mph23.0 mphOvercast
11:13 PM39.2 °F32.0 °F75 %29.79 in10.0 miEast (90°)10.4 mph19.6 mphOvercast
11:33 PM39.2 °F32.0 °F75 %29.79 in10.0 miEast (80°)15.0 mph20.7 mphOvercast
11:53 PM39.2 °F30.2 °F70 %29.79 in10.0 miEast (80°)10.4 mph25.3 mphOvercast
Hourly data recorded from KFFM, located miles away from Elizabeth, Minnesota







STORIES FROM OUR PARTNERS